Regional Weather Roundup
Issued by NWS

Home | Current Version | Previous Version | Graphics & Text | Print | Product List | Glossary On
Versions: 1 2 3 4 5 6 7 8 9 10 11 12 13 14 15 16 17 18 19 20 21 22 23 24 25 26 27 28 29 30 31 32 33 34 35 36 37 38 39 40 41 42 43 44 45 46 47 48 49 50
000
ASUS43 KMPX 181610
RWRMN
WEATHER ROUNDUP FOR MINNESOTA
NATIONAL WEATHER SERVICE TWIN CITIES/CHANHASSEN MN
1100 AM CDT SAT APR 18 2015


NOTE: "FAIR" INDICATES FEW OR NO CLOUDS BELOW 12,000 FEET WITH NO
SIGNIFICANT WEATHER AND/OR OBSTRUCTIONS TO VISIBILITY. N/A MEANS
CURRENT SKY AND/OR WEATHER CONDITIONS ARE NOT AVAILABLE.

MNZ060>063-068>070-181700-
   Twin Cities Metro

CITY           SKY/WX    TMP DP  RH WIND       PRES   REMARKS
TWIN CITIES    PTSUNNY   63  32  31 E14       30.07F
ST PAUL        MOSUNNY   63  32  31 E10       30.09S
CRYSTAL        MOSUNNY   63  32  31 E12       30.07S
BLAINE         MOSUNNY   63  32  31 E14       30.09S
LAKEVILLE      MOSUNNY   61  34  36 E14       30.06S
EDEN PRAIRIE   MOSUNNY   63  33  32 E12       30.06S
SOUTH ST PAUL  MOSUNNY   63  30  29 E9        30.08S
LAKE ELMO      FAIR      63  34  34 E13       30.09F
$$
MNZ001>005-007-008-013>017-022>024-027-028-181700-
   Northwest Minnesota

CITY           SKY/WX    TMP DP  RH WIND       PRES   REMARKS
BEMIDJI        SUNNY     50  31  48 E12G18    30.13F
HALLOCK        SUNNY     54  28  37 SE15      30.10F
ROSEAU         SUNNY     54  27  35 SE18      30.13F
WARROAD        SUNNY     48  34  57 E10       30.15F
THIEF RVR FALL SUNNY     52  30  43 SE13      30.11F
CROOKSTON      SUNNY     55  30  38 SE13      30.09F
FOSSTON        SUNNY     55  30  38 E12       30.10F
DETROIT LAKES  SUNNY     54  32  43 SE14      30.09S
MOORHEAD       SUNNY     61  28  29 S12       30.07F
PARK RAPIDS    SUNNY     53  29  39 SE12      30.11F
MAHNOMEN       FAIR      55  29  37 SE10      30.08F
$$
MNZ006-009>011-018-025>026-181700-
   North Central Minnesota

CITY           SKY/WX    TMP DP  RH WIND       PRES   REMARKS
BAUDETTE       SUNNY     52  25  35 SE17      30.17F
FLAG ISLAND    SUNNY     45  32  61 SE8       30.17F
INTL FALLS     SUNNY     50  28  42 E10       30.20F
WASKISH        SUNNY     54  28  37 SE16      30.14F
BIG FORK       SUNNY     55  27  33 E9        30.17F
LONGVILLE      SUNNY     52  30  43 SE10      30.14S
GRAND RAPIDS   SUNNY     48  27  43 SE14      30.17F
ORR            SUNNY     52  19  28 E8        30.17F
COOK           SUNNY     52  25  35 SE9       30.20S
WALKER         FAIR      49  32  52 E9G16     30.13F
$$
MNZ012-019>021-037-181700-
   Northeast Minnesota

CITY           SKY/WX    TMP DP  RH WIND       PRES   REMARKS
DULUTH         SUNNY     46  32  58 E18G30    30.20S
ELY            SUNNY     52  19  28 SE10G17   30.21S
HIBBING        SUNNY     52  27  38 SE10      30.19S
EVELETH        SUNNY     52  30  43 SE9G16    30.21R
DULUTH HARBOR  SUNNY     41  36  81 NE21G26   30.23S
TWO HARBORS    SUNNY     46  36  66 E22G29    30.22F
SILVER BAY     SUNNY     45  34  65 NE15      30.25S
GRAND MARAIS     N/A     43  32  65 E6        30.30R
G MARAIS ARPRT SUNNY     41  28  60 SE8       30.26R
$$
MNZ029>031-032-039>041-046>048-054>057-064-181700-
   West Central Minnesota

CITY           SKY/WX    TMP DP  RH WIND       PRES   REMARKS
FERGUS FALLS   SUNNY     61  23  23 E10       30.06F
WHEATON        SUNNY     61  30  31 E13       30.05F
MORRIS         SUNNY     64  30  27 SE17G23   30.02F
ALEXANDRIA     SUNNY     59  31  34 E16       30.07F
ELBOW LAKE     FAIR      59  31  35 E16       30.04F
WADENA         SUNNY     55  32  41 MISG      30.09F
GLENWOOD       SUNNY     63  30  29 E18G24    30.06F
APPLETON       SUNNY     64  28  25 SE14G20   30.02S
BENSON         SUNNY     64  27  24 SE12      30.04S
ORTONVILLE     SUNNY     61  28  29 SE9       30.02F
MADISON        MOSUNNY   66  28  24 SE13      30.01F
WILLMAR        FAIR      64  34  32 E14G21    30.05S
$$
MNZ033>034-036-042>043-049>051-058-059-181700-
   Central Minnesota

CITY           SKY/WX    TMP DP  RH WIND       PRES   REMARKS
ST CLOUD       SUNNY     59  31  34 E9        30.08F
SAUK CENTRE    FAIR      58  32  37 E15       30.07F
PAYNESVILLE    SUNNY     58  31  36 NE16      30.07S
AITKIN         MOSUNNY   55  30  38 E10       30.13F
PINE RIVER     SUNNY     52  34  50 E12G18    30.16F
BRAINERD       MOSUNNY   52  30  43 E9        30.13F
STAPLES        SUNNY     54  28  37 E7        30.10F
LONG PRAIRIE   FAIR      55  32  41 NE14      30.08F
LITTLE FALLS   SUNNY     55  30  38 E10G16    30.10F
LITCHFIELD     SUNNY     63  34  34 E13       30.06F
BUFFALO        SUNNY     60  30  32 E15       30.08F
MAPLE LAKE     SUNNY     62  35  36 E12G17    30.08F
$$
MNZ037-044-045-052-053-181700-
   East Central Minnesota

CITY           SKY/WX    TMP DP  RH WIND       PRES   REMARKS
PRINCETON      SUNNY     61  34  36 NE9G16    30.10F
MORA           MOSUNNY   54  32  43 E9        30.14F
CAMBRIDGE      MOSUNNY   61  39  44 NE7       30.09S
RUSH CITY      MOSUNNY   57  34  41 NE9       30.12F
MOOSE LAKE     SUNNY     52  32  46 NE8       30.14F
HINCKLEY       FAIR      54  32  43 E8        30.14F
CLOQUET        SUNNY     46  30  53 E15       30.19S
MCGREGOR       SUNNY     52  32  46 E13       30.16F
$$
MNZ071>073-080-081-089-090-097-098-181700-
   Southwest Minnesota

CITY           SKY/WX    TMP DP  RH WIND       PRES   REMARKS
MONTEVIDEO     SUNNY     66  30  26 S15       30.02F
GRANITE FALLS  SUNNY     66  31  26 E13       30.03F
CANBY          MOSUNNY   65  28  25 SE10      30.02F
MARSHALL       MOSUNNY   64  28  25 E15       30.00F
REDWOOD FALLS  MOSUNNY   65  31  28 E10       30.01F
OLIVIA         MOSUNNY   63  32  31 E15G23    30.02F
PIPESTONE      CLOUDY    66  27  22 SE18G25   29.98F
WINDOM         PTSUNNY   70  27  19 E14G22    30.00F
WORTHINGTON    PTSUNNY   66  32  28 E16G24    29.99F
JACKSON        PTSUNNY   68  30  24 E16       30.00F
TRACY          PTSUNNY   66  31  27 E13       30.00F
SLAYTON        PTSUNNY   67  28  22 SE21      29.99F
$$
MNZ065>067-074>077-082>085-091>093-181700-
   South Central Minnesota

CITY           SKY/WX    TMP DP  RH WIND       PRES   REMARKS
MANKATO        MOSUNNY   66  34  30 NE3       30.03F
NEW ULM        MOSUNNY   64  30  27 E12       30.02S
ST JAMES       MOSUNNY   70  27  19 E13       30.01F
FAIRMONT       PTSUNNY   70  32  24 SE22      29.99F
GLENCOE        SUNNY     65  35  33 E15       30.04F
FARIBAULT      MOSUNNY   66  34  30 E9G18     30.05F
OWATONNA       MOSUNNY   66  34  30 E16       30.04S
ALBERT LEA     PTSUNNY   66  34  30 E14       30.02S
$$
MNZ078>079-086>088-094>096-181700-
   Southeast Minnesota

CITY           SKY/WX    TMP DP  RH WIND       PRES   REMARKS
ROCHESTER      MOSUNNY   64  36  35 E17       30.06F
RED WING       MOSUNNY   64  30  27 SE13      30.07S
STANTON        MOSUNNY   64  31  29 E14       30.05S
DODGE CENTER   MOSUNNY   66  34  30 E18       30.05S
WINONA         MOSUNNY   63  34  34 SE12      30.08S
AUSTIN         PTSUNNY   68  37  32 E14       30.03R
PRESTON        MOSUNNY   63  35  34 E10       30.06S
$$
ABBREVIATIONS USED IN REMARKS
   TC - TEMPERATURES IN CELSIUS
  WCI - WIND CHILL INDEX
   HX - HEAT INDEX
  VSB - VISIBILITY
$$


USA.gov is the U.S. government's official web portal to all federal, state and local government web resources and services.